Time,TemperatureF,DewpointF,PressureIn,WindDirection,WindDirectionDegrees,WindSpeedMPH,WindSpeedGustMPH,Humidity,HourlyPrecipIn,Conditions,Clouds,dailyrainin,SoftwareType,DateUTC
2013-07-03 00:00:00,60.1,55.0,29.75,WNW,293,0.4,0.4,83,0.00,,,0.00,WUHU216HW,2013-07-03 07:00:00,
2013-07-03 00:06:00,60.1,55.0,29.75,WNW,293,0.4,0.4,83,0.00,,,0.00,WUHU216HW,2013-07-03 07:06:00,
2013-07-03 00:30:00,59.8,54.9,29.74,WSW,248,0.0,0.0,84,0.00,,,0.00,WUHU216HW,2013-07-03 07:30:00,
2013-07-03 00:31:00,59.8,54.6,29.74,WSW,248,0.0,0.0,83,0.00,,,0.00,WUHU216HW,2013-07-03 07:31:00,
2013-07-03 00:36:00,59.8,54.6,29.74,WSW,248,0.0,0.0,83,0.00,,,0.00,WUHU216HW,2013-07-03 07:36:00,
2013-07-03 01:00:00,59.8,54.9,29.73,WNW,293,0.7,0.7,84,0.00,,,0.00,WUHU216HW,2013-07-03 08:00:00,
2013-07-03 01:01:00,59.8,54.9,29.73,West,270,1.1,1.1,84,0.00,,,0.00,WUHU216HW,2013-07-03 08:01:00,
2013-07-03 01:06:00,59.8,54.9,29.73,West,270,1.1,1.1,84,0.00,,,0.00,WUHU216HW,2013-07-03 08:06:00,
2013-07-03 01:07:00,59.8,54.9,29.73,West,270,1.1,1.1,84,0.00,,,0.00,WUHU216HW,2013-07-03 08:07:00,
2013-07-03 01:09:00,59.8,54.9,29.73,West,270,1.1,1.1,84,0.00,,,0.00,WUHU216HW,2013-07-03 08:09:00,
2013-07-03 01:30:00,59.8,54.9,29.72,SW,225,1.1,1.1,84,0.00,,,0.00,WUHU216HW,2013-07-03 08:30:00,
2013-07-03 01:35:00,59.8,54.9,29.72,SW,225,0.4,1.1,84,0.00,,,0.00,WUHU216HW,2013-07-03 08:35:00,
2013-07-03 01:40:00,59.8,54.9,29.72,SW,225,0.4,0.9,84,0.00,,,0.00,WUHU216HW,2013-07-03 08:40:00,
2013-07-03 02:00:00,59.8,54.9,29.72,SSE,158,0.2,0.2,84,0.00,,,0.00,WUHU216HW,2013-07-03 09:00:00,
2013-07-03 02:05:00,59.8,54.9,29.72,SSE,158,0.2,0.2,84,0.00,,,0.00,WUHU216HW,2013-07-03 09:05:00,
2013-07-03 02:30:00,59.4,54.9,29.71,SSW,203,0.7,0.7,85,0.00,,,0.00,WUHU216HW,2013-07-03 09:30:00,
2013-07-03 02:35:00,59.4,54.9,29.71,SSW,203,0.2,0.7,85,0.00,,,0.00,WUHU216HW,2013-07-03 09:35:00,
2013-07-03 02:40:00,59.4,54.9,29.71,SSW,203,0.2,0.2,85,0.00,,,0.00,WUHU216HW,2013-07-03 09:40:00,
2013-07-03 03:00:00,58.7,54.6,29.70,SE,135,0.2,0.2,86,0.00,,,0.00,WUHU216HW,2013-07-03 10:00:00,
2013-07-03 03:01:00,58.7,54.6,29.70,SE,135,0.0,0.2,86,0.00,,,0.00,WUHU216HW,2013-07-03 10:01:00,
2013-07-03 03:04:00,58.7,54.6,29.70,SE,135,0.0,0.2,86,0.00,,,0.00,WUHU216HW,2013-07-03 10:04:00,
2013-07-03 03:05:00,58.7,54.6,29.70,SE,135,0.0,0.2,86,0.00,,,0.00,WUHU216HW,2013-07-03 10:05:00,
2013-07-03 03:10:00,58.7,54.6,29.70,SE,135,0.0,0.2,86,0.00,,,0.00,WUHU216HW,2013-07-03 10:10:00,
2013-07-03 03:30:00,58.9,55.0,29.70,WNW,293,0.0,0.0,87,0.00,,,0.00,WUHU216HW,2013-07-03 10:30:00,
2013-07-03 03:31:00,58.9,54.7,29.70,WNW,293,0.0,0.0,86,0.00,,,0.00,WUHU216HW,2013-07-03 10:31:00,
2013-07-03 03:36:00,58.9,54.7,29.70,WNW,293,0.0,0.0,86,0.00,,,0.00,WUHU216HW,2013-07-03 10:36:00,
2013-07-03 04:00:00,58.9,55.0,29.69,West,270,0.2,0.2,87,0.00,,,0.00,WUHU216HW,2013-07-03 11:00:00,
2013-07-03 04:05:00,59.0,55.2,29.69,West,270,0.2,0.2,87,0.00,,,0.00,WUHU216HW,2013-07-03 11:05:00,
2013-07-03 04:08:00,59.0,55.2,29.69,West,270,0.2,0.2,87,0.00,,,0.00,WUHU216HW,2013-07-03 11:08:00,
2013-07-03 04:09:00,59.0,55.2,29.69,West,270,0.2,0.2,87,0.00,,,0.00,WUHU216HW,2013-07-03 11:09:00,
2013-07-03 04:30:00,60.1,56.3,29.69,South,180,0.0,0.0,87,0.00,,,0.00,WUHU216HW,2013-07-03 11:30:00,
2013-07-03 04:31:00,60.1,56.3,29.69,South,180,0.0,0.0,87,0.00,,,0.00,WUHU216HW,2013-07-03 11:31:00,
2013-07-03 04:36:00,60.1,56.3,29.69,South,180,0.0,0.0,87,0.00,,,0.00,WUHU216HW,2013-07-03 11:36:00,
2013-07-03 05:00:00,60.5,56.4,29.69,West,270,0.4,0.4,86,0.00,,,0.00,WUHU216HW,2013-07-03 12:00:00,
2013-07-03 05:02:00,60.5,56.4,29.69,West,270,0.0,0.4,86,0.00,,,0.00,WUHU216HW,2013-07-03 12:02:00,
2013-07-03 05:07:00,60.5,56.4,29.69,West,270,0.0,0.4,86,0.00,,,0.00,WUHU216HW,2013-07-03 12:07:00,
2013-07-03 05:30:00,60.5,56.0,29.70,South,180,0.0,0.0,85,0.00,,,0.00,WUHU216HW,2013-07-03 12:30:00,
2013-07-03 05:35:00,60.5,56.0,29.70,South,180,0.0,0.0,85,0.00,,,0.00,WUHU216HW,2013-07-03 12:35:00,
2013-07-03 06:00:00,60.7,56.2,29.70,SW,225,0.0,0.0,85,0.00,,,0.00,WUHU216HW,2013-07-03 13:00:00,
2013-07-03 06:05:00,60.7,55.8,29.70,SW,225,0.0,0.0,84,0.00,,,0.00,WUHU216HW,2013-07-03 13:05:00,
2013-07-03 06:30:00,60.8,56.0,29.69,SE,135,0.7,0.7,84,0.00,,,0.00,WUHU216HW,2013-07-03 13:30:00,
2013-07-03 06:31:00,60.8,56.0,29.69,SE,135,0.7,0.7,84,0.00,,,0.00,WUHU216HW,2013-07-03 13:31:00,
2013-07-03 06:36:00,60.8,56.0,29.69,SE,135,0.4,0.7,84,0.00,,,0.00,WUHU216HW,2013-07-03 13:36:00,
2013-07-03 06:37:00,60.8,56.0,29.69,SE,135,0.4,0.7,84,0.00,,,0.00,WUHU216HW,2013-07-03 13:37:00,
2013-07-03 07:00:00,59.6,55.5,29.69,ESE,113,0.4,0.4,86,0.00,,,0.00,WUHU216HW,2013-07-03 14:00:00,
2013-07-03 07:05:00,59.6,55.5,29.69,ESE,113,0.0,0.4,86,0.00,,,0.00,WUHU216HW,2013-07-03 14:05:00,
2013-07-03 07:06:00,59.6,55.5,29.69,ESE,113,0.0,0.4,86,0.00,,,0.00,WUHU216HW,2013-07-03 14:06:00,
2013-07-03 07:09:00,59.6,55.5,29.69,ESE,113,0.0,0.4,86,0.00,,,0.00,WUHU216HW,2013-07-03 14:09:00,
2013-07-03 07:30:00,59.8,56.3,29.69,ESE,113,1.3,1.3,88,0.00,,,0.00,WUHU216HW,2013-07-03 14:30:00,
2013-07-03 07:31:00,59.8,56.3,29.69,ESE,113,1.8,2.0,88,0.00,,,0.00,WUHU216HW,2013-07-03 14:31:00,
2013-07-03 07:36:00,59.8,56.3,29.69,ESE,113,1.8,2.0,88,0.00,,,0.00,WUHU216HW,2013-07-03 14:36:00,
2013-07-03 07:39:00,59.8,56.3,29.69,ESE,113,1.8,2.0,88,0.00,,,0.00,WUHU216HW,2013-07-03 14:39:00,
2013-07-03 08:00:00,60.5,56.6,29.68,ESE,113,3.4,3.4,87,0.00,,,0.00,WUHU216HW,2013-07-03 15:00:00,
2013-07-03 08:03:00,60.7,56.8,29.68,ESE,113,4.0,4.0,87,0.00,,,0.00,WUHU216HW,2013-07-03 15:03:00,
2013-07-03 08:08:00,60.7,56.8,29.68,ESE,113,4.0,4.0,87,0.00,,,0.00,WUHU216HW,2013-07-03 15:08:00,
2013-07-03 08:30:00,64.1,58.5,29.68,SE,135,6.0,6.0,82,0.00,,,0.00,WUHU216HW,2013-07-03 15:30:00,
2013-07-03 08:31:00,64.1,58.5,29.68,SE,135,5.1,6.0,82,0.00,,,0.00,WUHU216HW,2013-07-03 15:31:00,
2013-07-03 08:36:00,64.1,58.5,29.68,SE,135,5.1,6.0,82,0.00,,,0.00,WUHU216HW,2013-07-03 15:36:00,
2013-07-03 08:40:00,64.1,58.5,29.68,SE,135,5.1,6.0,82,0.00,,,0.00,WUHU216HW,2013-07-03 15:40:00,
2013-07-03 09:00:00,68.2,60.0,29.68,SE,135,5.6,5.6,75,0.00,,,0.00,WUHU216HW,2013-07-03 16:00:00,
2013-07-03 09:05:00,68.2,60.4,29.68,SE,135,3.1,5.6,76,0.00,,,0.00,WUHU216HW,2013-07-03 16:05:00,
2013-07-03 09:10:00,68.2,60.4,29.68,SE,135,3.1,3.1,76,0.00,,,0.00,WUHU216HW,2013-07-03 16:10:00,
2013-07-03 09:30:00,75.1,64.2,29.67,ESE,113,1.6,1.6,69,0.00,,,0.00,WUHU216HW,2013-07-03 16:30:00,
2013-07-03 09:35:00,75.2,63.9,29.67,ESE,113,2.5,2.5,68,0.00,,,0.00,WUHU216HW,2013-07-03 16:35:00,
2013-07-03 09:40:00,75.2,63.9,29.67,ESE,113,2.5,2.5,68,0.00,,,0.00,WUHU216HW,2013-07-03 16:40:00,
2013-07-03 10:00:00,80.1,65.5,29.66,SW,225,2.2,2.2,61,0.00,,,0.00,WUHU216HW,2013-07-03 17:00:00,
2013-07-03 10:05:00,80.3,65.6,29.66,SSW,203,1.6,2.2,61,0.00,,,0.00,WUHU216HW,2013-07-03 17:05:00,
2013-07-03 10:10:00,80.3,65.6,29.66,SSW,203,1.6,1.6,61,0.00,,,0.00,WUHU216HW,2013-07-03 17:10:00,
2013-07-03 10:30:00,75.1,59.8,29.67,WNW,293,11.4,11.4,59,0.00,,,0.00,WUHU216HW,2013-07-03 17:30:00,
2013-07-03 10:31:00,74.9,59.6,29.66,NW,315,14.1,14.1,59,0.00,,,0.00,WUHU216HW,2013-07-03 17:31:00,
2013-07-03 10:36:00,74.9,59.6,29.66,NW,315,14.1,14.1,59,0.00,,,0.00,WUHU216HW,2013-07-03 17:36:00,
2013-07-03 11:00:00,71.3,58.4,29.68,WNW,293,9.4,9.4,64,0.00,,,0.00,WUHU216HW,2013-07-03 18:00:00,
2013-07-03 11:05:00,71.3,58.1,29.68,WNW,293,13.9,13.9,63,0.00,,,0.00,WUHU216HW,2013-07-03 18:05:00,
2013-07-03 11:10:00,71.3,58.1,29.68,WNW,293,13.9,13.9,63,0.00,,,0.00,WUHU216HW,2013-07-03 18:10:00,
2013-07-03 11:30:00,69.7,57.8,29.68,WNW,293,9.6,9.6,66,0.00,,,0.00,WUHU216HW,2013-07-03 18:30:00,
2013-07-03 11:35:00,69.7,57.8,29.68,WNW,293,11.6,11.6,66,0.00,,,0.00,WUHU216HW,2013-07-03 18:35:00,
2013-07-03 11:40:00,69.7,57.8,29.68,WNW,293,11.6,11.6,66,0.00,,,0.00,WUHU216HW,2013-07-03 18:40:00,
2013-07-03 12:00:00,70.2,57.9,29.69,West,270,11.0,11.0,65,0.00,,,0.00,WUHU216HW,2013-07-03 19:00:00,
2013-07-03 12:05:00,70.2,57.9,29.69,WNW,293,10.1,11.0,65,0.00,,,0.00,WUHU216HW,2013-07-03 19:05:00,
2013-07-03 12:10:00,70.2,57.9,29.69,WNW,293,10.1,11.0,65,0.00,,,0.00,WUHU216HW,2013-07-03 19:10:00,
2013-07-03 12:30:00,71.6,58.8,29.68,WNW,293,10.3,10.3,64,0.00,,,0.00,WUHU216HW,2013-07-03 19:30:00,
2013-07-03 12:36:00,71.6,59.2,29.68,WSW,248,9.2,10.3,65,0.00,,,0.00,WUHU216HW,2013-07-03 19:36:00,
2013-07-03 13:00:00,71.1,58.3,29.68,WNW,293,11.9,11.9,64,0.00,,,0.00,WUHU216HW,2013-07-03 20:00:00,
2013-07-03 13:05:00,71.3,58.4,29.68,WNW,293,12.1,12.1,64,0.00,,,0.00,WUHU216HW,2013-07-03 20:05:00,
2013-07-03 13:10:00,71.3,58.4,29.68,WNW,293,12.1,12.1,64,0.00,,,0.00,WUHU216HW,2013-07-03 20:10:00,
2013-07-03 13:30:00,71.6,58.8,29.68,NW,315,7.6,7.6,64,0.00,,,0.00,WUHU216HW,2013-07-03 20:30:00,
2013-07-03 13:36:00,71.5,58.6,29.68,WNW,293,10.1,10.1,64,0.00,,,0.00,WUHU216HW,2013-07-03 20:36:00,
2013-07-03 14:00:00,73.8,60.0,29.66,WNW,293,9.8,9.8,62,0.00,,,0.00,WUHU216HW,2013-07-03 21:00:00,
2013-07-03 14:05:00,74.0,60.1,29.66,West,270,10.5,10.5,62,0.00,,,0.00,WUHU216HW,2013-07-03 21:05:00,
2013-07-03 14:30:00,75.1,60.3,29.64,WNW,293,9.2,9.2,60,0.00,,,0.00,WUHU216HW,2013-07-03 21:30:00,
2013-07-03 14:35:00,75.2,59.9,29.64,West,270,6.9,9.2,59,0.00,,,0.00,WUHU216HW,2013-07-03 21:35:00,
2013-07-03 14:40:00,75.2,59.9,29.64,West,270,6.9,9.2,59,0.00,,,0.00,WUHU216HW,2013-07-03 21:40:00,
2013-07-03 15:00:00,75.8,60.5,29.64,WNW,293,8.5,8.5,59,0.00,,,0.00,WUHU216HW,2013-07-03 22:00:00,
2013-07-03 15:05:00,75.8,59.9,29.64,WNW,293,8.5,8.5,58,0.00,,,0.00,WUHU216HW,2013-07-03 22:05:00,
2013-07-03 15:10:00,75.8,59.9,29.64,WNW,293,8.5,8.5,58,0.00,,,0.00,WUHU216HW,2013-07-03 22:10:00,
2013-07-03 15:30:00,76.0,59.6,29.63,West,270,12.1,12.1,57,0.00,,,0.00,WUHU216HW,2013-07-03 22:30:00,
2013-07-03 15:35:00,76.0,59.6,29.63,WNW,293,9.6,12.1,57,0.00,,,0.00,WUHU216HW,2013-07-03 22:35:00,
2013-07-03 16:00:00,75.8,59.9,29.63,NW,315,7.4,7.4,58,0.00,,,0.00,WUHU216HW,2013-07-03 23:00:00,
2013-07-03 16:05:00,75.8,59.9,29.63,West,270,6.3,7.4,58,0.00,,,0.00,WUHU216HW,2013-07-03 23:05:00,
2013-07-03 16:30:00,72.4,59.1,29.63,WNW,293,7.8,8.3,63,0.00,,,0.00,WUHU216HW,2013-07-03 23:30:00,
2013-07-03 16:31:00,72.4,59.1,29.63,NW,315,10.5,10.5,63,0.00,,,0.00,WUHU216HW,2013-07-03 23:31:00,
2013-07-03 16:36:00,72.4,59.1,29.63,WNW,293,7.8,10.5,63,0.00,,,0.00,WUHU216HW,2013-07-03 23:36:00,
2013-07-03 17:00:00,71.6,58.8,29.62,WNW,293,8.9,8.9,64,0.00,,,0.00,WUHU216HW,2013-07-04 00:00:00,
2013-07-03 17:05:00,71.6,58.8,29.62,WNW,293,11.4,12.8,64,0.00,,,0.00,WUHU216HW,2013-07-04 00:05:00,
2013-07-03 17:30:00,74.2,58.9,29.62,NW,315,10.5,10.5,59,0.00,,,0.00,WUHU216HW,2013-07-04 00:30:00,
2013-07-03 17:35:00,74.2,58.9,29.62,NW,315,11.0,11.0,59,0.00,,,0.00,WUHU216HW,2013-07-04 00:35:00,
2013-07-03 18:00:00,70.6,58.2,29.61,NW,315,6.0,6.0,65,0.00,,,0.00,WUHU216HW,2013-07-04 01:00:00,
2013-07-03 18:05:00,70.4,58.1,29.61,NW,315,6.0,6.0,65,0.00,,,0.00,WUHU216HW,2013-07-04 01:05:00,
2013-07-03 18:10:00,70.4,58.1,29.61,NW,315,6.0,6.0,65,0.00,,,0.00,WUHU216HW,2013-07-04 01:10:00,
2013-07-03 18:30:00,69.3,58.2,29.61,West,270,8.3,8.3,68,0.00,,,0.00,WUHU216HW,2013-07-04 01:30:00,
2013-07-03 18:35:00,69.3,58.7,29.61,West,270,7.4,8.3,69,0.00,,,0.00,WUHU216HW,2013-07-04 01:35:00,
2013-07-03 18:40:00,69.3,58.7,29.61,West,270,7.4,8.3,69,0.00,,,0.00,WUHU216HW,2013-07-04 01:40:00,
2013-07-03 19:00:00,66.4,57.5,29.62,WNW,293,7.6,7.6,73,0.00,,,0.00,WUHU216HW,2013-07-04 02:00:00,
2013-07-03 19:05:00,66.4,57.5,29.62,WSW,248,6.3,7.6,73,0.00,,,0.00,WUHU216HW,2013-07-04 02:05:00,
2013-07-03 19:10:00,66.4,57.5,29.62,WSW,248,6.3,7.6,73,0.00,,,0.00,WUHU216HW,2013-07-04 02:10:00,
2013-07-03 19:30:00,63.4,56.7,29.62,WNW,293,3.6,3.6,79,0.00,,,0.00,WUHU216HW,2013-07-04 02:30:00,
2013-07-03 19:35:00,63.4,56.7,29.62,WNW,293,6.5,6.5,79,0.00,,,0.00,WUHU216HW,2013-07-04 02:35:00,
2013-07-03 19:40:00,63.4,56.7,29.62,WNW,293,6.5,6.5,79,0.00,,,0.00,WUHU216HW,2013-07-04 02:40:00,
2013-07-03 20:00:00,63.4,57.1,29.62,West,270,1.6,1.6,80,0.00,,,0.00,WUHU216HW,2013-07-04 03:00:00,
2013-07-03 20:05:00,63.4,57.1,29.62,WNW,293,4.0,4.0,80,0.00,,,0.00,WUHU216HW,2013-07-04 03:05:00,
2013-07-03 20:30:00,63.9,57.2,29.61,WNW,293,1.6,1.6,79,0.00,,,0.00,WUHU216HW,2013-07-04 03:30:00,
2013-07-03 20:35:00,63.9,57.2,29.61,WNW,293,2.2,2.2,79,0.00,,,0.00,WUHU216HW,2013-07-04 03:35:00,
2013-07-03 20:40:00,63.9,57.2,29.61,WNW,293,2.2,2.2,79,0.00,,,0.00,WUHU216HW,2013-07-04 03:40:00,
2013-07-03 21:00:00,63.4,56.0,29.60,WSW,248,2.5,2.5,77,0.00,,,0.00,WUHU216HW,2013-07-04 04:00:00,
2013-07-03 21:01:00,63.2,55.8,29.60,WSW,248,2.5,2.5,77,0.00,,,0.00,WUHU216HW,2013-07-04 04:01:00,
2013-07-03 21:02:00,63.2,55.8,29.60,WSW,248,2.5,2.5,77,0.00,,,0.00,WUHU216HW,2013-07-04 04:02:00,
2013-07-03 21:07:00,63.2,55.8,29.60,WSW,248,2.5,2.5,77,0.00,,,0.00,WUHU216HW,2013-07-04 04:07:00,
2013-07-03 21:30:00,61.2,55.7,29.61,WSW,248,1.8,1.8,82,0.00,,,0.00,WUHU216HW,2013-07-04 04:30:00,
2013-07-03 21:35:00,61.2,55.7,29.61,West,270,2.5,2.5,82,0.00,,,0.00,WUHU216HW,2013-07-04 04:35:00,
2013-07-03 21:40:00,61.2,55.7,29.61,West,270,2.5,2.5,82,0.00,,,0.00,WUHU216HW,2013-07-04 04:40:00,
2013-07-03 22:00:00,60.3,55.4,29.61,West,270,3.8,3.8,84,0.00,,,0.00,WUHU216HW,2013-07-04 05:00:00,
2013-07-03 22:05:00,60.3,55.4,29.61,West,270,4.0,4.0,84,0.00,,,0.00,WUHU216HW,2013-07-04 05:05:00,
2013-07-03 22:10:00,60.3,55.4,29.61,West,270,4.0,4.0,84,0.00,,,0.00,WUHU216HW,2013-07-04 05:10:00,
2013-07-03 22:30:00,59.4,55.5,29.62,WNW,293,3.4,3.4,87,0.00,,,0.00,WUHU216HW,2013-07-04 05:30:00,
2013-07-03 22:35:00,59.4,55.5,29.62,WNW,293,3.1,3.4,87,0.00,,,0.00,WUHU216HW,2013-07-04 05:35:00,
2013-07-03 22:40:00,59.4,55.5,29.62,WNW,293,3.1,3.4,87,0.00,,,0.00,WUHU216HW,2013-07-04 05:40:00,
2013-07-03 23:00:00,59.0,55.2,29.62,WNW,293,3.4,3.4,87,0.00,,,0.00,WUHU216HW,2013-07-04 06:00:00,
2013-07-03 23:05:00,59.0,55.2,29.62,West,270,3.4,3.4,87,0.00,,,0.00,WUHU216HW,2013-07-04 06:05:00,
2013-07-03 23:10:00,59.0,55.2,29.62,West,270,3.4,3.4,87,0.00,,,0.00,WUHU216HW,2013-07-04 06:10:00,
2013-07-03 23:30:00,59.2,55.4,29.61,West,270,0.4,0.4,87,0.00,,,0.00,WUHU216HW,2013-07-04 06:30:00,
2013-07-03 23:35:00,59.2,55.4,29.61,West,270,0.4,0.4,87,0.00,,,0.00,WUHU216HW,2013-07-04 06:35:00,
2013-07-03 23:40:00,59.2,55.4,29.61,West,270,0.4,0.4,87,0.00,,,0.00,WUHU216HW,2013-07-04 06:40:00,